STARLINK-2032 (47649 NORAD) Tracking and Keplerian Element Data

This shows tracking and keplerian element data for the satellite.

Feedback or suggestion? Click here.




ElementValue
Catalog47649
NameSTARLINK-2032
Epoch Orbit178
Epoch Day59.91667824
Epoch Year2021
RAAN38.1063
Inclination53.0498
Eccentricity0.0001461
Argument of Perigee108.8687
Mean Anonmoly18.2999
Mean Motion15.86481692
Decay Rate0.00112867
L11 47649U 21012AF 21059.91667824 .00112867 00000-0 43549-3 0 9999
L22 47649 53.0498 38.1063 0001461 108.8687 18.2999 15.86481692 1786

Live tracking and technical data element details for STARLINK-2032 (NORAD 47649). STARLINK-2032 can be tracked NOW for your location showing map with azimuth and elevation plus other details from your city location.

Track the satellite on the map from your city or location and see movement details for azimuth, elevation, latitude, longitude, range, height, and movement on the map or in text.







IsCatalogInMostPopularTable: catalog: 47649, numindb: 4
Update: records affected: 1



GetName: 47649 STARLINK-2032

Hit Count: updated at: Mon, 01 Mar 2021 16:14:49 GMT